Location: Capelle
(50.3413°N, 1.9974°E)
Time: 23:26:58
(UTC+00:00)

CZ-2D R/B - Pass Details

Date: 12 January 2026
Orbit: 525 x 595 km, 98.0° (Epoch: 7 February)

Event Time Altitude Azimuth Distance (km) Brightness Sun altitude
Rises 18:37:30 0° 181° (S) 2,686 6.9 -22.2°
Reaches altitude 10° 18:39:42 10° 188° (S) 1,790 6.1 -22.6°
Maximum altitude 18:43:23 42° 261° (W) 767 4.5 -23.2°
Drops below altitude 10° 18:47:03 10° 333° (NNW) 1,784 6.2 -23.7°
Sets 18:49:14 0° 341° (NNW) 2,675 7.0 -24.1°
